| time (UTC) | temp F | wind direction | speed MPH | gust MPH | rain 1hr in | rain 24hr in | rain mn in | humidity % | barometer mb |
| 20260503184955 | 66 | 250 | 12.0 | 16.0 | 0.00 | 0.00 | 0.00 | 55 | 1005.1 |
| 20260503184457 | 66 | 217 | 13.0 | 18.0 | 0.00 | 0.00 | 0.00 | 51 | 1005.1 |
| 20260503183955 | 66 | 223 | 15.0 | 18.0 | 0.00 | 0.00 | 0.00 | 55 | 1005.1 |
| 20260503183455 | 66 | 210 | 12.0 | 16.0 | 0.00 | 0.00 | 0.00 | 55 | 1005.1 |
| 20260503182956 | 66 | 211 | 11.0 | 16.0 | 0.00 | 0.00 | 0.00 | 52 | 1005.1 |
| 20260503182455 | 65 | 233 | 16.0 | 18.0 | 0.00 | 0.00 | 0.00 | 54 | 1005.1 |
| 20260503181955 | 66 | 243 | 12.0 | 19.0 | 0.00 | 0.00 | 0.00 | 54 | 1005.1 |
| 20260503181504 | 66 | 249 | 14.0 | 15.0 | 0.00 | 0.00 | 0.00 | 54 | 1005.4 |
| 20260503180955 | 65 | 223 | 11.0 | 16.0 | 0.00 | 0.00 | 0.00 | 56 | 1005.4 |
| 20260503180455 | 65 | 241 | 14.0 | 17.0 | 0.00 | 0.00 | 0.00 | 55 | 1005.4 |
| 20260503175955 | 65 | 220 | 12.0 | 17.0 | 0.00 | 0.00 | 0.00 | 58 | 1005.4 |
| 20260503175456 | 64 | 223 | 10.0 | 15.0 | 0.00 | 0.00 | 0.00 | 54 | 1005.4 |
| 20260503174955 | 65 | 221 | 11.0 | 15.0 | 0.00 | 0.00 | 0.00 | 54 | 1005.4 |
| 20260503174456 | 65 | 240 | 10.0 | 15.0 | 0.00 | 0.00 | 0.00 | 60 | 1005.4 |
| 20260503173956 | 65 | 243 | 13.0 | 17.0 | 0.00 | 0.00 | 0.00 | 56 | 1005.8 |
| 20260503173456 | 64 | 223 | 11.0 | 15.0 | 0.00 | 0.00 | 0.00 | 54 | 1005.8 |
| 20260503172955 | 64 | 260 | 12.0 | 15.0 | 0.00 | 0.00 | 0.00 | 54 | 1005.8 |
| 20260503172456 | 64 | 211 | 14.0 | 16.0 | 0.00 | 0.00 | 0.00 | 55 | 1005.8 |
| 20260503171955 | 64 | 236 | 11.0 | 16.0 | 0.00 | 0.00 | 0.00 | 54 | 1005.8 |
| 20260503171456 | 64 | 262 | 9.0 | 18.0 | 0.00 | 0.00 | 0.00 | 56 | 1005.8 |
| 20260503170956 | 63 | 237 | 9.0 | 15.0 | 0.00 | 0.00 | 0.00 | 59 | 1005.8 |
| 20260503170456 | 64 | 250 | 11.0 | 15.0 | 0.00 | 0.00 | 0.00 | 56 | 1005.8 |
| 20260503150955 | 58 | 206 | 15.0 | 18.0 | 0.00 | 0.00 | 0.00 | 65 | 1006.8 |
| 20260503150455 | 58 | 228 | 15.0 | 17.0 | 0.00 | 0.00 | 0.00 | 62 | 1006.8 |
| 20260503130955 | 52 | 187 | 12.0 | 14.0 | 0.00 | 0.00 | 0.00 | 74 | 1006.8 |
| 20260503130455 | 52 | 200 | 12.0 | 15.0 | 0.00 | 0.00 | 0.00 | 73 | 1006.8 |
| 20260503110455 | 46 | 195 | 9.0 | 10.0 | 0.00 | 0.00 | 0.00 | 79 | 1007.8 |
| 20260503090457 | 47 | 154 | 4.0 | 4.0 | 0.00 | 0.00 | 0.00 | 82 | 1008.8 |
| 20260503081455 | 48 | 174 | 7.0 | 8.0 | 0.00 | 0.00 | 0.00 | 85 | 1009.1 |
| 20260503080956 | 48 | 175 | 7.0 | 8.0 | 0.00 | 0.00 | 0.00 | 86 | 1009.1 |
| 20260503080455 | 49 | 184 | 4.0 | 6.0 | 0.00 | 0.00 | 0.00 | 84 | 1009.1 |
| 20260503072455 | 50 | 221 | 7.0 | 9.0 | 0.00 | 0.00 | 0.00 | 77 | 1009.5 |
| 20260503071955 | 51 | 222 | 8.0 | 13.0 | 0.00 | 0.00 | 0.00 | 75 | 1009.5 |
| 20260503071455 | 50 | 239 | 11.0 | 13.0 | 0.00 | 0.00 | 0.00 | 74 | 1009.8 |
| 20260503070955 | 50 | 227 | 9.0 | 12.0 | 0.00 | 0.00 | 0.00 | 75 | 1009.8 |
| 20260503070455 | 51 | 240 | 11.0 | 15.0 | 0.00 | 0.00 | 0.00 | 74 | 1010.2 |
| 20260503054956 | 48 | 188 | 4.0 | 7.0 | 0.00 | 0.00 | 0.00 | 76 | 1010.2 |
| 20260503054455 | 48 | 191 | 4.0 | 7.0 | 0.00 | 0.00 | 0.00 | 76 | 1010.2 |
| 20260503053955 | 48 | 198 | 6.0 | 9.0 | 0.00 | 0.00 | 0.00 | 72 | 1010.2 |
| 20260503053455 | 48 | 207 | 6.0 | 9.0 | 0.00 | 0.00 | 0.00 | 73 | 1010.5 |
| 20260503052955 | 47 | 193 | 6.0 | 8.0 | 0.00 | 0.00 | 0.00 | 77 | 1010.5 |
| 20260503052455 | 47 | 180 | 5.0 | 7.0 | 0.00 | 0.00 | 0.00 | 74 | 1010.5 |
| 20260503051955 | 47 | 175 | 6.0 | 7.0 | 0.00 | 0.00 | 0.00 | 76 | 1010.5 |
| 20260503051455 | 47 | 184 | 6.0 | 8.0 | 0.00 | 0.00 | 0.00 | 79 | 1010.5 |
| 20260503050956 | 46 | 178 | 6.0 | 7.0 | 0.00 | 0.00 | 0.00 | 78 | 1010.5 |
| 20260503050455 | 46 | 184 | 4.0 | 5.0 | 0.00 | 0.00 | 0.00 | 76 | 1010.5 |
| 20260503045955 | 46 | 217 | 4.0 | 6.0 | 0.00 | 0.00 | 0.00 | 75 | 1010.8 |
| 20260503045456 | 46 | 204 | 4.0 | 5.0 | 0.00 | 0.00 | 0.00 | 77 | 1010.8 |
| 20260503044955 | 46 | 167 | 4.0 | 6.0 | 0.00 | 0.00 | 0.00 | 79 | 1010.8 |
| 20260503044456 | 46 | 189 | 5.0 | 6.0 | 0.00 | 0.00 | 0.00 | 80 | 1010.8 |
| 20260503043955 | 46 | 181 | 4.0 | 6.0 | 0.00 | 0.00 | 0.00 | 79 | 1010.8 |
| 20260503043455 | 47 | 186 | 5.0 | 6.0 | 0.00 | 0.00 | 0.00 | 80 | 1011.2 |
| 20260503042955 | 47 | 187 | 6.0 | 8.0 | 0.00 | 0.00 | 0.00 | 74 | 1011.2 |
| 20260503042455 | 47 | 177 | 5.0 | 7.0 | 0.00 | 0.00 | 0.00 | 77 | 1011.2 |
| 20260503041955 | 48 | 188 | 5.0 | 8.0 | 0.00 | 0.00 | 0.00 | 73 | 1011.2 |
| 20260503041455 | 48 | 169 | 5.0 | 8.0 | 0.00 | 0.00 | 0.00 | 75 | 1011.2 |
| 20260503040955 | 48 | 187 | 6.0 | 7.0 | 0.00 | 0.00 | 0.00 | 73 | 1011.2 |
| 20260503040455 | 47 | 194 | 5.0 | 7.0 | 0.00 | 0.00 | 0.00 | 73 | 1011.2 |
| 20260503035955 | 47 | 187 | 7.0 | 7.0 | 0.00 | 0.00 | 0.00 | 73 | 1011.2 |
| 20260503035455 | 47 | 189 | 6.0 | 7.0 | 0.00 | 0.00 | 0.00 | 74 | 1011.2 |
| 20260503034955 | 46 | 166 | 6.0 | 7.0 | 0.00 | 0.00 | 0.00 | 75 | 1011.5 |
| 20260503034456 | 46 | 176 | 6.0 | 7.0 | 0.00 | 0.00 | 0.00 | 77 | 1011.5 |
| 20260503033955 | 46 | 187 | 6.0 | 7.0 | 0.00 | 0.00 | 0.00 | 81 | 1011.5 |
| 20260503033455 | 47 | 173 | 6.0 | 7.0 | 0.00 | 0.00 | 0.00 | 81 | 1011.5 |
| 20260503032956 | 47 | 175 | 6.0 | 7.0 | 0.00 | 0.00 | 0.00 | 81 | 1011.5 |
| 20260503032455 | 46 | 189 | 6.0 | 7.0 | 0.00 | 0.00 | 0.00 | 81 | 1011.9 |
| 20260503031956 | 47 | 174 | 3.0 | 5.0 | 0.00 | 0.00 | 0.00 | 80 | 1011.9 |
| 20260503031455 | 47 | 174 | 4.0 | 7.0 | 0.00 | 0.00 | 0.00 | 78 | 1011.9 |
| 20260503030955 | 47 | 188 | 6.0 | 7.0 | 0.00 | 0.00 | 0.00 | 75 | 1011.9 |
| 20260503030455 | 47 | 189 | 4.0 | 7.0 | 0.00 | 0.00 | 0.00 | 78 | 1011.9 |
| 20260503025955 | 48 | 176 | 6.0 | 7.0 | 0.00 | 0.00 | 0.00 | 79 | 1012.2 |
| 20260503025455 | 48 | 175 | 6.0 | 6.0 | 0.00 | 0.00 | 0.00 | 77 | 1012.2 |
| 20260503024956 | 48 | 172 | 6.0 | 6.0 | 0.00 | 0.00 | 0.00 | 78 | 1012.2 |
| 20260503024455 | 48 | 174 | 6.0 | 6.0 | 0.00 | 0.00 | 0.00 | 77 | 1012.2 |
| 20260503023955 | 48 | 170 | 4.0 | 5.0 | 0.00 | 0.00 | 0.00 | 80 | 1012.2 |
| 20260503023455 | 48 | 177 | 5.0 | 6.0 | 0.00 | 0.00 | 0.00 | 80 | 1012.2 |
| 20260503022955 | 49 | 182 | 4.0 | 6.0 | 0.00 | 0.00 | 0.00 | 80 | 1012.2 |
| 20260503022455 | 49 | 201 | 5.0 | 6.0 | 0.00 | 0.00 | 0.00 | 77 | 1012.2 |
| 20260503021955 | 49 | 183 | 5.0 | 6.0 | 0.00 | 0.00 | 0.00 | 78 | 1012.2 |
| 20260503021455 | 48 | 186 | 4.0 | 5.0 | 0.00 | 0.00 | 0.00 | 76 | 1012.2 |
| 20260503020955 | 49 | 211 | 4.0 | 4.0 | 0.00 | 0.00 | 0.00 | 79 | 1012.2 |
| 20260503020455 | 49 | 182 | 3.0 | 5.0 | 0.00 | 0.00 | 0.00 | 79 | 1012.5 |
| 20260503015955 | 49 | 180 | 4.0 | 5.0 | 0.00 | 0.00 | 0.00 | 75 | 1012.5 |
| 20260503015455 | 50 | 193 | 4.0 | 6.0 | 0.00 | 0.00 | 0.00 | 77 | 1012.5 |
| 20260503014955 | 50 | 187 | 5.0 | 6.0 | 0.00 | 0.00 | 0.00 | 74 | 1012.5 |
| 20260503014455 | 50 | 185 | 4.0 | 5.0 | 0.00 | 0.00 | 0.00 | 76 | 1012.5 |
| 20260503013956 | 49 | 178 | 4.0 | 5.0 | 0.00 | 0.00 | 0.00 | 76 | 1012.2 |
| 20260503013455 | 48 | 198 | 5.0 | 6.0 | 0.00 | 0.00 | 0.00 | 75 | 1012.5 |
| 20260503012955 | 49 | 162 | 3.0 | 3.0 | 0.00 | 0.00 | 0.00 | 79 | 1012.5 |
| 20260503012455 | 49 | 173 | 3.0 | 4.0 | 0.00 | 0.00 | 0.00 | 76 | 1012.5 |
| 20260503011956 | 50 | 171 | 4.0 | 6.0 | 0.00 | 0.00 | 0.00 | 74 | 1012.5 |
| 20260503011456 | 50 | 177 | 5.0 | 7.0 | 0.00 | 0.00 | 0.00 | 70 | 1012.5 |
| 20260503010955 | 50 | 181 | 6.0 | 7.0 | 0.00 | 0.00 | 0.00 | 66 | 1012.5 |
| 20260503010456 | 51 | 210 | 5.0 | 7.0 | 0.00 | 0.00 | 0.00 | 67 | 1012.5 |
| 20260503005955 | 51 | 209 | 6.0 | 8.0 | 0.00 | 0.00 | 0.00 | 68 | 1012.5 |
| 20260503005455 | 51 | 226 | 6.0 | 8.0 | 0.00 | 0.00 | 0.00 | 64 | 1012.5 |
| 20260503004956 | 52 | 231 | 7.0 | 8.0 | 0.00 | 0.00 | 0.00 | 64 | 1012.9 |
| 20260503004455 | 52 | 224 | 7.0 | 8.0 | 0.00 | 0.00 | 0.00 | 64 | 1012.9 |
| 20260503003956 | 52 | 235 | 8.0 | 9.0 | 0.00 | 0.00 | 0.00 | 62 | 1012.9 |
| 20260503003456 | 53 | 228 | 8.0 | 9.0 | 0.00 | 0.00 | 0.00 | 61 | 1012.9 |
| 20260503002955 | 53 | 235 | 9.0 | 10.0 | 0.00 | 0.00 | 0.00 | 59 | 1012.9 |
| 20260503002455 | 53 | 214 | 9.0 | 10.0 | 0.00 | 0.00 | 0.00 | 59 | 1012.9 |
| 20260503001955 | 54 | 226 | 8.0 | 11.0 | 0.00 | 0.00 | 0.00 | 57 | 1012.9 |
| 20260503001456 | 54 | 232 | 10.0 | 14.0 | 0.00 | 0.00 | 0.00 | 57 | 1012.9 |
| 20260503000955 | 55 | 241 | 13.0 | 15.0 | 0.00 | 0.00 | 0.00 | 55 | 1012.9 |
| 20260503000455 | 56 | 241 | 10.0 | 14.0 | 0.00 | 0.00 | 0.00 | 58 | 1013.2 |
| 20260502235955 | 56 | 238 | 11.0 | 13.0 | 0.00 | 0.00 | 0.00 | 50 | 1013.2 |
| 20260502235455 | 56 | 229 | 11.0 | 14.0 | 0.00 | 0.00 | 0.00 | 50 | 1013.2 |
| 20260502234958 | 56 | 241 | 11.0 | 16.0 | 0.00 | 0.00 | 0.00 | 55 | 1013.2 |
| 20260502234455 | 56 | 219 | 11.0 | 15.0 | 0.00 | 0.00 | 0.00 | 54 | 1013.2 |
| 20260502233956 | 56 | 232 | 10.0 | 16.0 | 0.00 | 0.00 | 0.00 | 53 | 1013.2 |
| 20260502233455 | 56 | 248 | 10.0 | 16.0 | 0.00 | 0.00 | 0.00 | 55 | 1013.2 |
| 20260502232956 | 56 | 245 | 11.0 | 15.0 | 0.00 | 0.00 | 0.00 | 54 | 1013.2 |
| 20260502232456 | 55 | 249 | 11.0 | 15.0 | 0.00 | 0.00 | 0.00 | 53 | 1013.2 |
| 20260502231955 | 56 | 235 | 12.0 | 16.0 | 0.00 | 0.00 | 0.00 | 52 | 1013.2 |
| 20260502231455 | 56 | 218 | 11.0 | 18.0 | 0.00 | 0.00 | 0.00 | 53 | 1013.2 |
| 20260502230955 | 56 | 236 | 15.0 | 18.0 | 0.00 | 0.00 | 0.00 | 51 | 1013.2 |
| 20260502230455 | 57 | 255 | 11.0 | 18.0 | 0.00 | 0.00 | 0.00 | 54 | 1013.2 |
| 20260502225955 | 57 | 246 | 8.0 | 14.0 | 0.00 | 0.00 | 0.00 | 52 | 1013.2 |
| 20260502225456 | 57 | 252 | 11.0 | 18.0 | 0.00 | 0.00 | 0.00 | 52 | 1013.2 |
| 20260502224955 | 58 | 243 | 13.0 | 18.0 | 0.00 | 0.00 | 0.00 | 47 | 1013.2 |
| 20260502224455 | 58 | 232 | 13.0 | 16.0 | 0.00 | 0.00 | 0.00 | 47 | 1013.2 |
| 20260502223956 | 57 | 250 | 11.0 | 16.0 | 0.00 | 0.00 | 0.00 | 49 | 1013.2 |
| 20260502223455 | 57 | 213 | 16.0 | 17.0 | 0.00 | 0.00 | 0.00 | 49 | 1013.2 |
| 20260502222955 | 58 | 233 | 15.0 | 18.0 | 0.00 | 0.00 | 0.00 | 46 | 1013.2 |
| 20260502222455 | 58 | 233 | 12.0 | 20.0 | 0.00 | 0.00 | 0.00 | 49 | 1013.2 |
| 20260502221955 | 58 | 229 | 11.0 | 17.0 | 0.00 | 0.00 | 0.00 | 50 | 1013.2 |
| 20260502221455 | 58 | 236 | 10.0 | 16.0 | 0.00 | 0.00 | 0.00 | 51 | 1013.2 |
| 20260502220956 | 58 | 275 | 11.0 | 15.0 | 0.00 | 0.00 | 0.00 | 50 | 1013.2 |
| 20260502220456 | 57 | 219 | 12.0 | 18.0 | 0.00 | 0.00 | 0.00 | 44 | 1013.2 |
| 20260502215955 | 58 | 215 | 14.0 | 17.0 | 0.00 | 0.00 | 0.00 | 47 | 1013.5 |
| 20260502215455 | 58 | 225 | 12.0 | 18.0 | 0.00 | 0.00 | 0.00 | 46 | 1013.5 |
| 20260502214956 | 58 | 225 | 16.0 | 18.0 | 0.00 | 0.00 | 0.00 | 50 | 1013.5 |
| 20260502214455 | 58 | 246 | 12.0 | 18.0 | 0.00 | 0.00 | 0.00 | 46 | 1013.5 |
| 20260502213956 | 58 | 218 | 14.0 | 18.0 | 0.00 | 0.00 | 0.00 | 46 | 1013.5 |
| 20260502212956 | 58 | 222 | 16.0 | 18.0 | 0.00 | 0.00 | 0.00 | 47 | 1013.5 |
| 20260502212456 | 58 | 251 | 16.0 | 18.0 | 0.00 | 0.00 | 0.00 | 47 | 1013.9 |
| 20260502211955 | 59 | 239 | 11.0 | 13.0 | 0.00 | 0.00 | 0.00 | 48 | 1013.9 |
| 20260502211455 | 59 | 236 | 9.0 | 11.0 | 0.00 | 0.00 | 0.00 | 42 | 1013.5 |
| 20260502210955 | 58 | 261 | 9.0 | 15.0 | 0.00 | 0.00 | 0.00 | 48 | 1013.9 |
| 20260502210455 | 58 | 240 | 11.0 | 18.0 | 0.00 | 0.00 | 0.00 | 44 | 1013.9 |
| 20260502205956 | 58 | 252 | 16.0 | 18.0 | 0.00 | 0.00 | 0.00 | 45 | 1013.9 |
| 20260502205456 | 58 | 241 | 13.0 | 18.0 | 0.00 | 0.00 | 0.00 | 47 | 1013.9 |
| 20260502204956 | 58 | 252 | 14.0 | 18.0 | 0.00 | 0.00 | 0.00 | 44 | 1014.2 |
| 20260502204455 | 57 | 262 | 13.0 | 17.0 | 0.00 | 0.00 | 0.00 | 44 | 1014.2 |
| 20260502203955 | 59 | 244 | 13.0 | 20.0 | 0.00 | 0.00 | 0.00 | 47 | 1014.2 |
| 20260502203455 | 60 | 253 | 10.0 | 13.0 | 0.00 | 0.00 | 0.00 | 44 | 1014.2 |
| 20260502202955 | 58 | 254 | 11.0 | 20.0 | 0.00 | 0.00 | 0.00 | 45 | 1014.2 |
| 20260502202456 | 59 | 257 | 17.0 | 20.0 | 0.00 | 0.00 | 0.00 | 46 | 1014.6 |
| 20260502201955 | 58 | 251 | 12.0 | 15.0 | 0.00 | 0.00 | 0.00 | 47 | 1014.6 |
| 20260502201455 | 58 | 224 | 6.0 | 16.0 | 0.00 | 0.00 | 0.00 | 44 | 1014.6 |
| 20260502200955 | 58 | 229 | 13.0 | 17.0 | 0.00 | 0.00 | 0.00 | 44 | 1014.6 |
| 20260502200456 | 58 | 274 | 9.0 | 18.0 | 0.00 | 0.00 | 0.00 | 47 | 1014.9 |
| 20260502195955 | 58 | 276 | 15.0 | 18.0 | 0.00 | 0.00 | 0.00 | 45 | 1014.9 |
| 20260502195455 | 58 | 268 | 13.0 | 16.0 | 0.00 | 0.00 | 0.00 | 49 | 1014.9 |
| 20260502194955 | 58 | 227 | 9.0 | 11.0 | 0.00 | 0.00 | 0.00 | 47 | 1014.9 |
| 20260502194455 | 58 | 223 | 13.0 | 17.0 | 0.00 | 0.00 | 0.00 | 45 | 1015.2 |
| 20260502193955 | 58 | 236 | 15.0 | 18.0 | 0.00 | 0.00 | 0.00 | 48 | 1015.2 |
| 20260502193455 | 58 | 228 | 15.0 | 18.0 | 0.00 | 0.00 | 0.00 | 47 | 1015.2 |
| 20260502192956 | 58 | 240 | 11.0 | 17.0 | 0.00 | 0.00 | 0.00 | 44 | 1015.2 |
| 20260502192455 | 58 | 231 | 15.0 | 17.0 | 0.00 | 0.00 | 0.00 | 44 | 1015.2 |
| 20260502191955 | 58 | 246 | 8.0 | 14.0 | 0.00 | 0.00 | 0.00 | 45 | 1015.2 |
| 20260502191456 | 58 | 236 | 9.0 | 16.0 | 0.00 | 0.00 | 0.00 | 42 | 1015.6 |
| 20260502190955 | 57 | 265 | 11.0 | 14.0 | 0.00 | 0.00 | 0.00 | 44 | 1015.6 |
| 20260502190456 | 57 | 242 | 11.0 | 18.0 | 0.00 | 0.00 | 0.00 | 47 | 1015.6 |
| 20260502185955 | 57 | 230 | 11.0 | 18.0 | 0.00 | 0.00 | 0.00 | 43 | 1015.6 |
| 20260502185456 | 57 | 196 | 11.0 | 20.0 | 0.00 | 0.00 | 0.00 | 42 | 1015.6 |